Powrót do katalogu

STARLINK-11372

AktywnyŁącznośćVLEO
NORAD 61576·PAYLOAD·🇺🇸 United States

Wystrzelony Oct 18, 2024 z Cape Canaveral Space Force Station

Loading…

Następne Przeloty (najbliższe 24 godziny)

TLE

ŚwieżeSource: CelesTrak SupGP

Epoka: Sep 15, 2026, 02:18 UTC

1 61576C 24187C   26258.09631944 -.00006848  00000+0 -56320-4 0  2581
2 61576  53.1569  82.4581 0001056  59.5110 170.3127 15.69749753    15

Śledź STARLINK-11372 w czasie rzeczywistym z AllMySat

Download on the App Store